LIC0074 SCEL-SCIE

Flight info

Callsign LIC0074
Flight time 0h 47m
Altitude 33000
Route GELUS5B GELUS UQ809 ARUNI ARUNI6C
Aircraft A320/M-SDE3FGHIRWY/LB1

Departure

Time 2026-05-06 16:43
Airport Comodoro Arturo Merino Benítez International Airport (SCEL)

Arrival

Time 2026-05-06 17:30
Airport Carriel Sur International Airport (SCIE)
Time Latitude Longitude Altitude Speed Heading
2026-05-06 16:04 -33.39596 -70.79373 1565 ft 0 kts 176°
2026-05-06 16:28 -33.39583 -70.79374 1564 ft 4 kts 179°
2026-05-06 16:28 -33.39556 -70.79373 1564 ft 4 kts 186°
2026-05-06 16:29 -33.39530 -70.79368 1564 ft 4 kts 201°
2026-05-06 16:29 -33.39510 -70.79352 1564 ft 4 kts 248°
2026-05-06 16:29 -33.39507 -70.79339 1564 ft 1 kts 267°
2026-05-06 16:29 -33.39507 -70.79338 1564 ft 0 kts 267°
2026-05-06 16:31 -33.39507 -70.79340 1564 ft 1 kts 267°
2026-05-06 16:32 -33.39508 -70.79366 1564 ft 5 kts 267°
2026-05-06 16:32 -33.39510 -70.79420 1565 ft 8 kts 267°
2026-05-06 16:32 -33.39514 -70.79503 1565 ft 12 kts 267°
2026-05-06 16:32 -33.39518 -70.79615 1565 ft 15 kts 267°
2026-05-06 16:33 -33.39523 -70.79734 1565 ft 16 kts 267°
2026-05-06 16:33 -33.39527 -70.79844 1565 ft 12 kts 268°
2026-05-06 16:33 -33.39517 -70.79935 1565 ft 10 kts 313°
2026-05-06 16:34 -33.39348 -70.79947 1565 ft 15 kts 359°
2026-05-06 16:34 -33.39232 -70.79953 1565 ft 18 kts 358°
2026-05-06 16:34 -33.39098 -70.79961 1565 ft 21 kts 357°
2026-05-06 16:34 -33.38943 -70.79971 1565 ft 23 kts 357°
2026-05-06 16:35 -33.38781 -70.79981 1566 ft 25 kts 357°
2026-05-06 16:35 -33.38607 -70.79991 1566 ft 25 kts 358°
2026-05-06 16:35 -33.38452 -70.79998 1565 ft 21 kts 358°
2026-05-06 16:35 -33.38385 -70.80044 1566 ft 10 kts 270°
2026-05-06 16:36 -33.38336 -70.80104 1566 ft 13 kts 348°
2026-05-06 16:36 -33.38239 -70.80112 1566 ft 15 kts 356°
2026-05-06 16:36 -33.38122 -70.80119 1566 ft 18 kts 358°
2026-05-06 16:36 -33.37987 -70.80127 1566 ft 21 kts 357°
2026-05-06 16:37 -33.37831 -70.80136 1566 ft 24 kts 357°
2026-05-06 16:37 -33.37655 -70.80145 1567 ft 27 kts 357°
2026-05-06 16:37 -33.37468 -70.80153 1567 ft 28 kts 358°
2026-05-06 16:37 -33.37283 -70.80162 1567 ft 17 kts 356°
2026-05-06 16:38 -33.37165 -70.80172 1567 ft 16 kts 345°
2026-05-06 16:38 -33.37107 -70.80247 1569 ft 0 kts 289°
2026-05-06 16:39 -33.37105 -70.80257 1570 ft 3 kts 286°
2026-05-06 16:39 -33.37104 -70.80261 1570 ft 0 kts 284°
2026-05-06 16:41 -33.37102 -70.80270 1571 ft 4 kts 283°
2026-05-06 16:42 -33.37110 -70.80324 1574 ft 9 kts 244°
2026-05-06 16:42 -33.37196 -70.80375 1573 ft 17 kts 179°
2026-05-06 16:42 -33.37220 -70.80374 1573 ft 12 kts 178°
2026-05-06 16:42 -33.37591 -70.80359 1573 ft 90 kts 177°
2026-05-06 16:43 -33.38420 -70.80314 1574 ft 146 kts 177°
2026-05-06 16:43 -33.39549 -70.80247 1809 ft 176 kts 178°
2026-05-06 16:43 -33.40864 -70.80166 2185 ft 203 kts 178°
2026-05-06 16:43 -33.42335 -70.80078 2617 ft 227 kts 178°
2026-05-06 16:44 -33.44000 -70.79983 3116 ft 252 kts 178°
2026-05-06 16:44 -33.45837 -70.79879 3740 ft 276 kts 181°
2026-05-06 16:44 -33.47777 -70.80026 4659 ft 280 kts 201°
2026-05-06 16:44 -33.49373 -70.81256 5645 ft 271 kts 237°
2026-05-06 16:45 -33.50284 -70.83176 6691 ft 263 kts 255°
2026-05-06 16:45 -33.50840 -70.85246 7731 ft 261 kts 261°
2026-05-06 16:45 -33.51304 -70.87359 8740 ft 264 kts 262°
2026-05-06 16:45 -33.51790 -70.89495 9792 ft 267 kts 261°
2026-05-06 16:46 -33.52335 -70.91679 10430 ft 285 kts 258°
2026-05-06 16:46 -33.52984 -70.94032 10853 ft 309 kts 254°
2026-05-06 16:46 -33.54064 -70.96338 11576 ft 326 kts 239°
2026-05-06 16:46 -33.55678 -70.98306 12435 ft 338 kts 224°
2026-05-06 16:47 -33.57726 -70.99785 13311 ft 349 kts 213°
2026-05-06 16:47 -33.59908 -71.01085 14164 ft 351 kts 213°
2026-05-06 16:47 -33.62098 -71.02402 14942 ft 354 kts 213°
2026-05-06 16:47 -33.64309 -71.03738 15754 ft 357 kts 213°
2026-05-06 16:48 -33.66538 -71.05090 16537 ft 361 kts 213°
2026-05-06 16:48 -33.68787 -71.06458 17292 ft 364 kts 214°
2026-05-06 16:48 -33.71054 -71.07837 18037 ft 367 kts 214°
2026-05-06 16:48 -33.73342 -71.09231 18726 ft 371 kts 214°
2026-05-06 16:49 -33.75653 -71.10640 19413 ft 373 kts 214°
2026-05-06 16:49 -33.77980 -71.12058 20084 ft 378 kts 214°
2026-05-06 16:49 -33.80337 -71.13494 20726 ft 382 kts 214°
2026-05-06 16:49 -33.82718 -71.14944 21381 ft 385 kts 214°
2026-05-06 16:50 -33.85123 -71.16405 22048 ft 389 kts 214°
2026-05-06 16:50 -33.87546 -71.17881 22787 ft 392 kts 214°
2026-05-06 16:50 -33.89992 -71.19377 23530 ft 396 kts 214°
2026-05-06 16:50 -33.92458 -71.20887 24154 ft 400 kts 214°
2026-05-06 16:51 -33.94943 -71.22410 24734 ft 402 kts 214°
2026-05-06 16:51 -33.97441 -71.23942 25296 ft 404 kts 215°
2026-05-06 16:51 -33.99952 -71.25485 25819 ft 406 kts 215°
2026-05-06 16:51 -34.02479 -71.27034 26332 ft 408 kts 215°
2026-05-06 16:52 -34.05022 -71.28591 26760 ft 413 kts 214°
2026-05-06 16:52 -34.07597 -71.30170 27140 ft 418 kts 214°
2026-05-06 16:52 -34.10200 -71.31769 27575 ft 421 kts 214°
2026-05-06 16:52 -34.12818 -71.33380 28034 ft 424 kts 214°
2026-05-06 16:53 -34.15456 -71.35005 28472 ft 427 kts 214°
2026-05-06 16:53 -34.18111 -71.36639 28935 ft 429 kts 214°
2026-05-06 16:53 -34.20780 -71.38282 29373 ft 432 kts 214°
2026-05-06 16:53 -34.23464 -71.39936 29817 ft 435 kts 214°
2026-05-06 16:54 -34.26167 -71.41602 30233 ft 437 kts 214°
2026-05-06 16:54 -34.28884 -71.43279 30596 ft 440 kts 215°
2026-05-06 16:54 -34.31615 -71.44966 30962 ft 442 kts 215°
2026-05-06 16:54 -34.34367 -71.46664 31285 ft 447 kts 215°
2026-05-06 16:55 -34.37145 -71.48380 31580 ft 450 kts 215°
2026-05-06 16:55 -34.39937 -71.50106 31979 ft 450 kts 215°
2026-05-06 16:55 -34.42720 -71.51825 32480 ft 448 kts 216°
2026-05-06 16:55 -34.45494 -71.53542 32927 ft 447 kts 216°
2026-05-06 16:56 -34.48256 -71.55255 33049 ft 443 kts 216°
2026-05-06 16:56 -34.53639 -71.58580 33058 ft 430 kts 216°
2026-05-06 16:57 -34.58942 -71.61883 33065 ft 428 kts 216°
2026-05-06 16:57 -34.64242 -71.65201 33058 ft 429 kts 216°
2026-05-06 16:58 -34.69552 -71.68522 33057 ft 429 kts 215°
2026-05-06 16:58 -34.74870 -71.71834 33049 ft 429 kts 216°
2026-05-06 16:59 -34.80171 -71.75146 33038 ft 428 kts 216°
2026-05-06 16:59 -34.85472 -71.78464 33040 ft 429 kts 216°
2026-05-06 17:00 -34.90780 -71.81796 33056 ft 430 kts 215°
2026-05-06 17:00 -34.96096 -71.85143 33035 ft 431 kts 215°
2026-05-06 17:01 -35.01428 -71.88498 33033 ft 432 kts 215°
2026-05-06 17:01 -35.06758 -71.91852 33037 ft 432 kts 214°
2026-05-06 17:02 -35.12100 -71.95217 33036 ft 432 kts 214°
2026-05-06 17:02 -35.17441 -71.98586 33035 ft 432 kts 214°
2026-05-06 17:03 -35.22773 -72.01955 33035 ft 431 kts 214°
2026-05-06 17:03 -35.28099 -72.05336 32874 ft 432 kts 214°
2026-05-06 17:03 -35.30766 -72.07031 32600 ft 432 kts 214°
2026-05-06 17:04 -35.33433 -72.08728 32339 ft 432 kts 214°
2026-05-06 17:04 -35.36083 -72.10414 31817 ft 428 kts 214°
2026-05-06 17:04 -35.38716 -72.12089 31364 ft 423 kts 213°
2026-05-06 17:04 -35.41295 -72.13722 31021 ft 415 kts 213°
2026-05-06 17:05 -35.43893 -72.15375 30040 ft 425 kts 212°
2026-05-06 17:05 -35.45666 -72.16508 29629 ft 423 kts 212°
2026-05-06 17:05 -35.48266 -72.18166 29061 ft 420 kts 212°
2026-05-06 17:05 -35.50851 -72.19815 28471 ft 417 kts 212°
2026-05-06 17:06 -35.53409 -72.21452 27908 ft 414 kts 212°
2026-05-06 17:06 -35.55954 -72.23079 27338 ft 411 kts 212°
2026-05-06 17:06 -35.58480 -72.24694 26789 ft 408 kts 212°
2026-05-06 17:06 -35.60992 -72.26303 26250 ft 406 kts 212°
2026-05-06 17:07 -35.63490 -72.27901 25708 ft 404 kts 212°
2026-05-06 17:07 -35.65975 -72.29492 25184 ft 401 kts 212°
2026-05-06 17:07 -35.68441 -72.31074 24684 ft 399 kts 212°
2026-05-06 17:07 -35.70898 -72.32654 24179 ft 397 kts 212°
2026-05-06 17:08 -35.73342 -72.34225 23683 ft 396 kts 212°
2026-05-06 17:08 -35.75778 -72.35792 23129 ft 394 kts 212°
2026-05-06 17:08 -35.78198 -72.37348 22636 ft 390 kts 212°
2026-05-06 17:08 -35.80594 -72.38889 22140 ft 387 kts 212°
2026-05-06 17:09 -35.82969 -72.40420 21621 ft 384 kts 212°
2026-05-06 17:09 -35.85322 -72.41942 21116 ft 381 kts 212°
2026-05-06 17:09 -35.87660 -72.43454 20589 ft 378 kts 212°
2026-05-06 17:09 -35.89965 -72.44987 20064 ft 375 kts 214°
2026-05-06 17:10 -35.92200 -72.46599 19537 ft 370 kts 216°
2026-05-06 17:10 -35.94385 -72.48256 18995 ft 368 kts 216°
2026-05-06 17:10 -35.96548 -72.49929 18448 ft 366 kts 217°
2026-05-06 17:10 -35.98702 -72.51592 17862 ft 364 kts 216°
2026-05-06 17:11 -36.00843 -72.53229 17327 ft 360 kts 216°
2026-05-06 17:11 -36.02970 -72.54841 16801 ft 357 kts 216°
2026-05-06 17:11 -36.05079 -72.56427 16259 ft 354 kts 216°
2026-05-06 17:11 -36.07175 -72.57996 15724 ft 350 kts 216°
2026-05-06 17:12 -36.09250 -72.59548 15191 ft 347 kts 216°
2026-05-06 17:12 -36.11303 -72.61086 14667 ft 343 kts 215°
2026-05-06 17:12 -36.13334 -72.62616 14139 ft 340 kts 216°
2026-05-06 17:12 -36.15341 -72.64133 13586 ft 336 kts 215°
2026-05-06 17:13 -36.17328 -72.65632 13043 ft 333 kts 215°
2026-05-06 17:13 -36.19289 -72.67110 12526 ft 328 kts 215°
2026-05-06 17:13 -36.21205 -72.68556 12042 ft 325 kts 215°
2026-05-06 17:13 -36.23130 -72.70010 11522 ft 323 kts 215°
2026-05-06 17:14 -36.25043 -72.71456 11014 ft 321 kts 215°
2026-05-06 17:14 -36.26966 -72.72909 10505 ft 318 kts 215°
2026-05-06 17:14 -36.28839 -72.74327 10229 ft 310 kts 215°
2026-05-06 17:14 -36.30640 -72.75688 10103 ft 297 kts 215°
2026-05-06 17:15 -36.32348 -72.76977 9985 ft 285 kts 216°
2026-05-06 17:15 -36.34016 -72.78236 9768 ft 278 kts 215°
2026-05-06 17:15 -36.35664 -72.79483 9390 ft 277 kts 216°
2026-05-06 17:15 -36.37304 -72.80728 8991 ft 276 kts 216°
2026-05-06 17:16 -36.38932 -72.81965 8641 ft 273 kts 216°
2026-05-06 17:16 -36.40555 -72.83187 8240 ft 274 kts 215°
2026-05-06 17:16 -36.42190 -72.84411 7831 ft 274 kts 215°
2026-05-06 17:16 -36.43821 -72.85629 7454 ft 273 kts 215°
2026-05-06 17:17 -36.45448 -72.86843 7073 ft 272 kts 215°
2026-05-06 17:17 -36.47069 -72.88058 6693 ft 272 kts 214°
2026-05-06 17:17 -36.48694 -72.89275 6289 ft 273 kts 214°
2026-05-06 17:17 -36.50323 -72.90493 5874 ft 273 kts 214°
2026-05-06 17:18 -36.51969 -72.91655 5494 ft 272 kts 211°
2026-05-06 17:18 -36.53665 -72.92695 5119 ft 271 kts 209°
2026-05-06 17:18 -36.55373 -72.93682 4729 ft 270 kts 208°
2026-05-06 17:18 -36.57075 -72.94648 4363 ft 268 kts 208°
2026-05-06 17:19 -36.58762 -72.95604 3980 ft 265 kts 206°
2026-05-06 17:19 -36.60374 -72.96646 3775 ft 255 kts 217°
2026-05-06 17:19 -36.61521 -72.98219 3786 ft 240 kts 238°
2026-05-06 17:19 -36.62031 -73.00136 3790 ft 231 kts 259°
2026-05-06 17:20 -36.61886 -73.02080 3792 ft 225 kts 281°
2026-05-06 17:20 -36.61150 -73.03808 3793 ft 231 kts 303°
2026-05-06 17:20 -36.59883 -73.05084 3792 ft 241 kts 327°
2026-05-06 17:20 -36.58240 -73.05626 3793 ft 251 kts 354°
2026-05-06 17:21 -36.56506 -73.05247 3793 ft 258 kts 19°
2026-05-06 17:21 -36.54844 -73.04385 3774 ft 260 kts 22°
2026-05-06 17:21 -36.53191 -73.03458 3774 ft 261 kts 23°
2026-05-06 17:21 -36.51542 -73.02513 3774 ft 261 kts 24°
2026-05-06 17:22 -36.49895 -73.01568 3771 ft 261 kts 24°
2026-05-06 17:22 -36.48417 -73.00285 3768 ft 261 kts 50°
2026-05-06 17:22 -36.47536 -72.98366 3777 ft 255 kts 78°
2026-05-06 17:22 -36.47395 -72.96223 3781 ft 246 kts 105°
2026-05-06 17:23 -36.47958 -72.94279 3786 ft 239 kts 128°
2026-05-06 17:23 -36.49093 -72.92799 3776 ft 236 kts 152°
2026-05-06 17:23 -36.50568 -72.92018 3772 ft 228 kts 175°
2026-05-06 17:23 -36.52114 -72.92008 3772 ft 220 kts 197°
2026-05-06 17:24 -36.53550 -72.92605 3777 ft 217 kts 207°
2026-05-06 17:24 -36.54933 -72.93351 3635 ft 218 kts 209°
2026-05-06 17:24 -36.56292 -72.94127 3516 ft 213 kts 209°
2026-05-06 17:24 -36.57641 -72.94909 3516 ft 213 kts 210°
2026-05-06 17:25 -36.58937 -72.95662 3515 ft 198 kts 206°
2026-05-06 17:25 -36.60128 -72.96353 3514 ft 178 kts 206°
2026-05-06 17:25 -36.61193 -72.96970 3525 ft 165 kts 206°
2026-05-06 17:25 -36.62225 -72.97572 3526 ft 163 kts 207°
2026-05-06 17:26 -36.63249 -72.98170 3435 ft 163 kts 206°
2026-05-06 17:26 -36.64281 -72.98771 3003 ft 165 kts 206°
2026-05-06 17:26 -36.65324 -72.99376 2585 ft 165 kts 206°
2026-05-06 17:26 -36.66343 -72.99966 2299 ft 158 kts 206°
2026-05-06 17:27 -36.67317 -73.00529 2023 ft 150 kts 207°
2026-05-06 17:27 -36.68232 -73.01059 1796 ft 137 kts 207°
2026-05-06 17:27 -36.69044 -73.01529 1743 ft 122 kts 207°
2026-05-06 17:27 -36.69796 -73.01963 1755 ft 118 kts 207°
2026-05-06 17:28 -36.70536 -73.02391 1746 ft 116 kts 207°
2026-05-06 17:28 -36.71257 -73.02809 1743 ft 113 kts 207°
2026-05-06 17:28 -36.71977 -73.03224 1666 ft 112 kts 208°
2026-05-06 17:28 -36.72669 -73.03615 1419 ft 108 kts 208°
2026-05-06 17:29 -36.73372 -73.04015 1031 ft 112 kts 208°
2026-05-06 17:29 -36.74085 -73.04428 693 ft 114 kts 208°
2026-05-06 17:29 -36.74778 -73.04852 516 ft 108 kts 210°
2026-05-06 17:29 -36.75459 -73.05246 286 ft 107 kts 210°
2026-05-06 17:30 -36.76137 -73.05673 105 ft 110 kts 207°
2026-05-06 17:30 -36.76775 -73.06049 65 ft 83 kts 206°
2026-05-06 17:30 -36.77183 -73.06285 58 ft 46 kts 198°
2026-05-06 17:30 -36.77406 -73.06332 66 ft 22 kts 178°
2026-05-06 17:31 -36.77480 -73.06325 61 ft 0 kts 174°
2026-05-06 17:32 -36.77510 -73.06322 61 ft 8 kts 175°
2026-05-06 17:32 -36.77583 -73.06314 61 ft 13 kts 175°
2026-05-06 17:32 -36.77657 -73.06291 61 ft 9 kts 131°
2026-05-06 17:33 -36.77633 -73.06231 61 ft 10 kts 12°
2026-05-06 17:33 -36.77562 -73.06244 59 ft 11 kts
2026-05-06 17:33 -36.77479 -73.06203 56 ft 14 kts 25°
2026-05-06 17:33 -36.77425 -73.06156 61 ft 8 kts 56°
2026-05-06 17:34 -36.77432 -73.06073 58 ft 12 kts 117°
2026-05-06 17:34 -36.77469 -73.05974 59 ft 13 kts 114°
2026-05-06 17:34 -36.77502 -73.05876 54 ft 13 kts 112°
2026-05-06 17:34 -36.77535 -73.05799 56 ft 11 kts 148°
2026-05-06 17:35 -36.77563 -73.05851 58 ft 11 kts 289°
2026-05-06 17:35 -36.77542 -73.05936 60 ft 8 kts 282°
2026-05-06 17:35 -36.77567 -73.05987 56 ft 2 kts 195°
2026-05-06 17:36 -36.77594 -73.05986 55 ft 0 kts 179°